Terminal Aerodrome Forecast
Issued by NWS Upton, NY

Home | Current Version | Previous Version | Text Only | Print | Product List | Glossary On
Versions: 1 2 3 4 5 6 7 8 9 10 11 12 13 14 15 16 17 18 19 20 21 22 23 24 25 26 27 28 29 30 31 32 33 34 35 36
427
FTUS41 KOKX 171740
TAFLGA
TAF
KLGA 171740Z 1718/1818 11005KT 3SM -RA BR SCT010 OVC020
     FM172100 11007KT 2SM -RA BR SCT006 OVC010
     FM172300 07008KT 1SM -RA BR OVC005
     FM180700 02006KT 2SM -RA BR OVC005
     FM181300 35007KT 4SM BR BKN006 OVC010
     FM181600 35008KT 5SM BR BKN010 OVC020=

USA.gov is the U.S. government's official web portal to all federal, state and local government web resources and services.